Overview Statistics Trail Chart Weather Telemetry Raw packets
 

This is the latest recevied weather packets stored in our database for station/object OE6JVE-13. If no packets are shown the sender has not sent any weather packets the latest 10 day(s).

<< 4 5 6 7 8 9 10 >>
Time Temp. Humidity Pressure Rain* Wind** Luminosity Snow
1788608440 23.89° C 49% 1011.9 hPa 0 mm - - -
1788607848 23.89° C 49% 1011.8 hPa 0 mm - - -
1788607256 23.33° C 51% 1012 hPa 0 mm - - -
1788606663 23.33° C 52% 1012 hPa 0 mm - - -
1788606079 23.33° C 52% 1011.8 hPa 0 mm - - -
1788605479 23.33° C 51% 1011.9 hPa 0 mm - - -
1788604821 23.33° C 50% 1011.7 hPa 0 mm - - -
1788604229 23.89° C 48% 1011.6 hPa 0 mm - - -
1788603638 23.89° C 46% 1011.6 hPa 0 mm - - -
1788603049 24.44° C 44% 1011.5 hPa 0 mm - - -
1788602453 25° C 43% 1011.5 hPa 0 mm - - -
1788601861 23.89° C 46% 1011.5 hPa 0 mm - - -
1788601275 23.33° C 47% 1011.7 hPa 0 mm - - -
1788600677 23.89° C 50% 1011.9 hPa 0 mm - - -
1788600019 22.78° C 51% 1011.9 hPa 0 mm - - -
1788599426 22.78° C 54% 1011.6 hPa 0 mm - - -
1788598835 23.33° C 57% 1011.5 hPa 0 mm - - -
1788598242 23.89° C 54% 1011.4 hPa 0 mm - - -
1788597651 23.33° C 56% 1011.2 hPa 0 mm - - -
1788597058 23.33° C 57% 1011 hPa 0 mm - - -
1788596466 23.89° C 59% 1010.9 hPa 0 mm - - -
1788595875 23.33° C 63% 1010.7 hPa 0 mm - - -
1788595216 23.33° C 64% 1010.4 hPa 0 mm - - -
1788594624 23.33° C 66% 1010.3 hPa 0 mm - - -
1788594032 22.78° C 69% 1010 hPa 0 mm - - -

* Rain latest hour (hover to see other rain measurements)
** Current wind speed in m/s (hover to see current wind gust speed)